FENGYUN 1C DEB

Satellite information

Favourite Embed

Satellite Type and Status

DEBRISIN ORBIT

Key statistics

Satellite FENGYUN 1C DEB at a glance.

Uptime

9494

Days in orbit

Revolutions

≈ 14.3

Per day

Orbit

SSO

Sun Synchronous Orbit

Inclination

99.2

Latest

Satellite identification and parameters

Extended collection of information and parameters for FENGYUN 1C DEB.

Object identification

Identified? True

Debris? True

Object name: FENGYUN 1C DEB

International designator: 1999-025DC

Object number (NORAD): 29810

Object ID (CCSDS): 29810

Country: PEOPLES REPUBLIC OF CHINA (PRC)

Current information (Y/N): Y

RCS size: SMALL

Orbital parameters

Period: 100.784 minutes

Inclination: 99.2265 deg

SMA: 7173.899 km

Apoapsis: 843.088 km

Periapsis: 748.44 km

RAAN: 150.9616 deg

Eccentricy: 0.0065967

Argument of periapsis: 292.1284 deg

Mean anomaly: 189.3431 deg

Mean motion: 14.28794783 rev/day

Mean motion (dot): 0.00000926 rev/day2

B* drag term: 0.00037816 1/REarth

Two-line elements (TLE)

Creation date: May 7, 2025, 3:14 a.m.

Reference frame: TEME

Reference center: EARTH

Epoch: May 6, 2025, 3:41 p.m. UTC

TLE line 0: 0 FENGYUN 1C DEB

TLE line 1: 1 29810U 99025DC 25126.65392250 .00000926 00000-0 37816-3 0 9998

TLE line 2: 2 29810 99.2265 150.9616 0065967 292.1284 189.3431 14.28794783952349

Live tracking on map

Real-time ground track for satellite FENGYUN 1C DEB.

In-orbit conjunctions

A list of the most updated potential collisions computed for object FENGYUN 1C DEB.

Target Orbit TCA Probability of collision Miss distance Type
COSMOS 249 MEO 2024-10-22 03:32:13 0.0001197089 325.0 (m) PAYLOAD
THORAD AGENA D DEB SSO 2024-08-23 02:35:39 0.0001093415 198.0 (m) DEBRIS

Associated space launch

Chinese polar orbiting meteorological satellite

FENGYUN 1C DEB was lifted into orbit during the mission ‘Long March 4B | Feng Yun 1C’, on board a Long March 4B space rocket.

The launch took place on May 10, 1999, 1:33 a.m. from Launch Complex 7.

For more information about the launch, click the button.

Launch to space Long March 4B | Feng Yun 1C
Long March 4B | Feng Yun 1C

Agency: N/A

Status: Launch Successful

Launch date: May 10, 1999, 1:33 a.m. UTC

Rocket: Long March 4B

Launch pad: Launch Complex 7

Location: Taiyuan Satellite Launch Center, People's Republic of China

...

Latest news about this satellite

There are no fresh news available about this satellite. Check back as we update our databases every day.


Newsletter sign-up

Weekly statistics, charts and insights to help you stay on top of the space industry.